Starlink 32176

operational
NORAD ID: 60340 Int'l Des: 2024-136 Owner: SPXS Country: US Constellation: starlink
LEOCIRCULAR

About Starlink 32176

Description loading...

Live Position

Loading 3D Globe...

Upcoming Passes

Altitude History

Altitude vs Time

uPlot chart will show altitude changes over time

Two-Line Element Set

1 60340U 24136M 25261.12171168 .00001248 00000-0 54267-4 0 9995
2 60340 53.1594 157.2225 0001144 94.8830 265.2301 15.30187262 64417
Epoch: Sep 18, 2025 • Age: 17 hours

Current Status

Altitude 477.7 km
Velocity 7.63 km/s
Sub-Earth Point 36.89°N, 115.77°W
Launch Date Aug 2, 2024
Age 1.1 years
Type internet

Technical Details

Classification Payload
Mass 730.00 kg
Dry Mass 700.00 kg
Total Mass 730.00 kg
Length 0.30 m
Diameter 4.10 m
Span 29.00 m
Shape Box + pan
Manufacturer SPXS
Bus Type Starlink V2M
Phase Status In Orbit
Owner/State SPXS/US

Large Constellations

Loading constellations...